Location: Greenwich
(51.4790°N, 0.0090°E)
Time: 16:20:34
(UTC+01:00)

Vanguard 2 - All Passes

Search period start: 23 June 2025 00:00
Search period end: 03 July 2025 00:00
Orbit: 552 x 2900 km, 32.9° (Epoch: 22 June)

Date Brightness Start Highest point End Pass type
(mag) Time Alt. Az. Time Alt. Az. Time Alt. Az.
23 Jun - 09:20:28 10° SSW 09:29:11 18° SSE 09:36:15 10° ESE daylight
23 Jun - 11:27:41 10° SW 11:37:37 25° S 11:44:42 10° SE daylight
23 Jun - 13:37:59 10° WSW 13:45:14 21° SSW 13:50:33 10° SSE daylight
24 Jun - 09:30:58 10° SSW 09:41:13 22° SSE 09:49:13 10° ESE daylight
24 Jun - 11:39:17 10° SW 11:49:40 27° S 11:57:00 10° SE daylight
24 Jun - 13:50:10 10° WSW 13:57:11 20° SSW 14:02:23 10° SSE daylight
25 Jun - 07:38:14 10° S 07:44:35 13° SSE 07:50:19 10° ESE daylight
25 Jun - 09:41:52 10° SSW 09:53:14 25° SSE 10:01:53 10° ESE daylight
25 Jun - 11:51:02 10° SW 12:01:42 28° S 12:09:10 10° SE daylight
25 Jun - 14:02:31 10° WSW 14:09:03 18° SSW 14:14:02 10° SSE daylight
26 Jun - 07:47:19 10° S 07:56:27 17° SSE 08:04:23 10° ESE daylight
26 Jun - 09:53:03 10° SW 10:05:16 28° S 10:14:22 10° ESE daylight
26 Jun - 12:02:55 10° WSW 12:13:42 28° S 12:21:15 10° SE daylight
26 Jun - 14:15:04 10° WSW 14:20:52 16° SSW 14:25:26 10° S daylight
27 Jun - 07:57:23 10° SSW 08:08:21 21° SSE 08:17:37 10° ESE daylight
27 Jun - 10:04:28 10° SW 10:17:17 31° S 10:26:43 10° ESE daylight
27 Jun - 12:14:54 10° WSW 12:25:40 28° SSW 12:33:14 10° SE daylight
27 Jun - 14:27:57 10° WSW 14:32:36 14° SW 14:36:27 10° S daylight
28 Jun - 06:08:54 10° SSE 06:11:41 11° SE 06:14:26 10° SE daylight
28 Jun - 08:07:59 10° SSW 08:20:15 25° SSE 08:30:27 10° ESE daylight
28 Jun - 10:16:03 10° SW 10:29:17 32° S 10:38:57 10° ESE daylight
28 Jun - 12:27:00 10° WSW 12:37:34 27° SSW 12:45:06 10° SSE daylight
28 Jun - 14:41:39 10° WSW 14:44:16 11° SW 14:46:38 10° SSW daylight
29 Jun - 06:15:43 10° SSE 06:23:23 15° SE 06:30:40 10° ESE daylight
29 Jun - 08:18:55 10° SSW 08:32:10 28° SSE 08:43:03 10° ESE daylight
29 Jun - 10:27:47 10° WSW 10:41:16 34° S 10:51:06 10° SE daylight
29 Jun - 12:39:12 10° WSW 12:49:25 25° SSW 12:56:49 10° SSE daylight
30 Jun - 06:25:01 10° S 06:35:07 18° SE 06:44:31 10° ESE daylight
30 Jun - 08:30:09 10° SW 08:44:05 31° SSE 08:55:28 10° ESE daylight
30 Jun - 10:39:38 10° WSW 10:53:14 34° S 11:03:09 10° SE daylight
30 Jun - 12:51:32 10° WSW 13:01:12 23° SSW 13:08:23 10° SSE daylight
01 Jul - 06:35:11 10° S 06:46:51 22° SSE 06:57:41 10° ESE daylight
01 Jul - 08:41:34 10° SW 08:56:01 34° S 09:07:46 10° ESE daylight
01 Jul - 10:51:35 10° WSW 11:05:09 34° SSW 11:15:07 10° SE daylight
01 Jul - 13:04:03 10° WSW 13:12:54 20° SW 13:19:42 10° S daylight
02 Jul - 04:49:01 10° SE 04:50:23 10° SE 04:51:43 10° SE daylight
02 Jul - 06:45:49 10° SSW 06:58:36 26° SSE 07:10:29 10° ESE daylight
02 Jul - 08:53:09 10° SW 09:07:58 36° S 09:19:57 10° ESE daylight
02 Jul - 11:03:37 10° WSW 11:17:02 32° SSW 11:26:59 10° SE daylight
02 Jul - 13:16:50 10° WSW 13:24:32 17° SW 13:30:42 10° S daylight
